ATLAS 5 CENTAUR DEB, 44107

Orbit data source: Space-Track

ATLAS 5 CENTAUR DEB, 44107 is space debris in HEO originally from a launch on Wed, 17 Sep 2014 UTC launched from the Air Force Eastern Test Range (AFETR). Debris objects in space refer to the collection of defunct objects orbiting the Earth. Examples of debris include non-operational satellites, rocket bodies, and fragments generated from explosions, collisions, or faulty payload assembly.

Loading next visibility...
Identifier
44107, 2014-055CC
Orbit
HEO
Country
Flag of USUS
Related business
Flag of USUnited Launch Alliance/Lockheed Martin (US)
Manufacturer
Unknown
Mission
Spacecraft
Bus & Motor
Unknown
Mass
Unknown
Launch date (UTC)
2014-09-17 (11 years ago)
Launch vehicle
Unknown
Launch site
Air Force Eastern Test Range (AFETR)
Object type
Payload
Rocket body
Debris
Shape & HBR
Unknown shape, 1.1 m
Radar Cross Section
RCS unknown

Expand to show TLE details & history
Last TLE update: 1 day ago

TLE from 1 day ago
0 ATLAS 5 CENTAUR DEB
1 44107U 14055CC  25287.42884660 -.00000043  00000-0  00000-0 0  9991
2 44107  19.4525 212.1167 4742504  48.1288 343.5858  1.75840381 42213
Epoch: 2025-10-14T10:17Z
TLE epoch observation values (Epoch: 2025-10-14T10:17:32.346Z)
Latitude
0.00006°
Longitude
34.52445°
Altitude
10,698.223 km
Speed
5.739 km/s
True Right ascension
14h 08m 30s
True Declination
0° 00' 00"
Sunlit
Object was in daylight at epoch
Visualization orbit readout
Latitude
Unknown
Longitude
Unknown
Altitude
Unknown
Speed
Unknown
Apparent Right ascension
Unknown
Apparent Declination
Unknown
Sunlit
N/A
Visualization observer readout
Local Sidereal Time
04:54:10
Azimuth
Unknown
Elevation
Unknown
Doppler factor
Unknown
Orbital elements
Apogee altitude
36,370.481 km
Perigee altitude
8,866.945 km
Semi-major axis
28,996.85 km
Eccentricity
0.47425
Inclination
19.4525°
RAAN
212.1167°
Arg. of periapsis
48.1288°
True anomaly
311.66799°
Mean anomaly
343.5858°
Eccentric anomaly
329.9992°
Mean motion
0.43956 °/min
Orbital period
819 mins
BSTAR
0
Loading maneuver chart data...
Computing Atmospheric mass density...

Documentation

Showing up to 5 results
|